C/2011 R1 ( McNaught )

Japanese version
Home page
Updated on April 13, 2013

---------------------------------------------------------------------

* Profile

Discovery Date September 3, 2011
Magnitude 16.5 mag
Discoverer Robert H. McNaught (Siding Spring)

* Pictures

* Orbital Elements

Epoch 2012 Sept. 30.0 TT = JDT 2456200.5
T 2012 Oct. 19.62318 TT                                 MPC
q   2.0795666            (2000.0)            P               Q
z  -0.0003327      Peri.  308.86192     -0.24323573     -0.76721534
 +/-0.0000005      Node   221.40812     -0.33938126     -0.50586371
e   1.0006918      Incl.  116.19691     -0.90865656     +0.39431273
From 660 observations 2010 Oct. 11-2013 Apr. 7, mean residual 0".5.

* Finding Charts

* Magnitudes Graph

        m1 = 6.5 + 5 log d + 10.0 log r

---------------------------------------------------------------------

The orbital elements are published on M.P.E.C. 2013-G31.
The charts are made with StellaNavigator Ver.8 (AstroArts).
The magnitudes graphs are made with Comet for Windows.

---------------------------------------------------------------------

Copyright(C) Seiichi Yoshida (comet@aerith.net). All rights reserved.